Regional Weather Roundup
Issued by NWS

Home | Current Version | Previous Version | Text Only | Print | Product List | Glossary Off
Versions: 1 2 3 4 5 6 7 8 9 10 11 12 13 14 15 16 17 18 19 20 21 22 23 24 25 26 27 28 29 30 31 32 33 34 35 36 37 38 39 40 41 42 43 44 45 46 47 48 49 50

473
ASUS45 KTFX 181810
RWRMT
MONTANA REGIONAL WEATHER ROUNDUP
NATIONAL WEATHER SERVICE GREAT FALLS MT
1100 AM MST SAT NOV 18 2017

NOTE: "FAIR" INDICATES FEW OR NO CLOUDS BELOW 12000 FEET WITH NO
SIGNIFICANT WEATHER AND/OR OBSTRUCTIONS TO VISIBILITY.

MTZ001>007-043-181900-
WEST OF THE DIVIDE

CITY           SKY/WX    TMP DP  RH WIND       PRES   REMARKS
KALISPELL      CLOUDY    40  26  57 SW12      30.27R
MISSOULA       CLOUDY    40  23  50 VRB3      30.32R
BUTTE          FAIR      31  12  45 SW7       30.28S WCI  24
MULLAN PASS    CLOUDY    23  20  88 VRB5      30.22R
ANACONDA         N/A     34  14  44 S18G24    30.29R WCI  23
DEER LODGE       N/A     36  21  55 SE7       30.29S WCI  30
EUREKA           N/A     39  21  48 MISG      30.25S
HAMILTON         N/A     41  16  36 SE12G17   30.32S
LIBBY            N/A     39  27  60 S7        30.27S
PLAINS           N/A     42  25  51 S7        30.30R
RONAN            N/A     37  27  68 CALM      30.32R
THOMPSON FALLS   N/A     37  33  85 CALM      30.35R
$$

MTZ008-052>055-181900-
SOUTHWEST MONTANA

CITY           SKY/WX    TMP DP  RH WIND       PRES   REMARKS
BOZEMAN        FAIR      35  18  49 N8        30.27S WCI  29
DILLON         FAIR      33   9  36 SW15      30.32R WCI  23
W YELLOWSTONE  PTSUNNY   21  16  79 S17G26    30.32F WCI   7
ENNIS          CLOUDY    32  12  43 S20G25    30.34F WCI  20
TWIN BRIDGES     N/A     36   9  32 SE1       30.28R
$$

MTZ009-010-012-014-046-048-049-054-181900-
EAST SLOPES AND CENTRAL MONTANA

CITY           SKY/WX    TMP DP  RH WIND       PRES   REMARKS
CUT BANK       FAIR      36  21  54 W38G46    30.07R WCI  22
GREAT FALLS    FAIR      40  18  41 SW28G36   30.12S
MALMSTROM AFB  FAIR      40  20  44 SW29G37   30.14R
HELENA         PTSUNNY   40  19  43 W6        30.25R
BOWMANS CRNR   FAIR      37  17  44 SW22      30.13R WCI  26
CHOTEAU          N/A     41  16  36 W8G15     30.12R
FAIRFIELD      FAIR      41  16  37 W25       30.11R
POWER          FAIR      38  20  48 SW22G30   30.10S WCI  28
RAYNESFORD     FAIR      40  17  40 W30G44    30.11R
ULM            FAIR      41  19  42 SW24G36   30.16R
$$

MTZ011-013-016-021-045-047-050-051-181900-
NORTH CENTRAL MONTANA

CITY           SKY/WX    TMP DP  RH WIND       PRES   REMARKS
HAVRE          FAIR      36  27  69 W9        30.09S WCI  29
LEWISTOWN      FAIR      40  19  43 W17G28    30.11R
N BAR RANCH    FAIR      39  16  38 W16G24    30.13R WCI  30
CHINOOK          N/A     25  16  68 CALM      30.10F
DENTON         FAIR      41  20  43 MISG      30.07S
GEYSER         FAIR      39  17  40 W30G38    30.09R WCI  28
GRASS RANGE    FAIR      39  18  43 W12G21    30.08R WCI  32
STANFORD       FAIR      40  16  37 W12G22    30.10R
WINIFRED       FAIR      41  19  42 W20G26    30.09R
$$

MTZ017>020-022>027-061-062-181900-
NORTHEAST MONTANA

CITY           SKY/WX    TMP DP  RH WIND       PRES   REMARKS
GLASGOW        FAIR      24  15  68 SW5       30.10S
GLENDIVE       FAIR      24  18  77 S8        30.12S WCI  15
JORDAN           N/A     37  25  61 W13       30.10S WCI  29
SIDNEY         FAIR      25  14  63 W6        30.13F WCI  18
WOLF POINT     FAIR      24  15  68 SW7       30.13F WCI  16
MALTA          SUNNY     27  18  69 W7        30.10S WCI  19
PLENTYWOOD       N/A     19  10  68 CALM      30.08F
POPLAR           N/A     21  12  68 SW8       30.13F WCI  12
SCOBEY           N/A     21   8  57 N3        30.04F
$$

MTZ028>42-056>058-181900-
SOUTHCENTRAL AND SOUTHEAST MONTANA

CITY           SKY/WX    TMP DP  RH WIND       PRES   REMARKS
BAKER          CLOUDY    28  21  75 W10       30.12S WCI  19
BILLINGS       FAIR      42  16  34 W22       30.17S
LIVINGSTON     FAIR      39  13  34 SW35G40   30.20S WCI  26
MILES CITY     PTSUNNY   33  25  72 VRB5      30.12F
BIG TIMBER     SUNNY     37  12  35 W32G39    30.18F WCI  25
EKALAKA          N/A     32  18  56 W14       30.06S WCI  22
FORSYTH          N/A     41  19  42 W15G23    30.13F
HARLOWTON      FAIR      35  19  50 W25G41    30.15R WCI  23
LAUREL           N/A     43  14  31 W23       30.17F
ROUNDUP          N/A     41  14  33 MISG      30.04R
$$

REGIONAL REPORTS...DAKOTAS

CITY           SKY/WX    TMP DP  RH WIND       PRES   REMARKS
WILLISTON      FAIR      24  11  57 NW8       30.12F WCI  15
MINOT          FAIR      21   8  57 W17       30.08F WCI   7
DICKINSON      FAIR      24  15  68 W12       30.08F WCI  13
BEACH          CLOUDY    25  19  80 W10       30.12F WCI  15
CROSBY         FAIR      19  10  68 W16       30.09S WCI   5
TIOGA          FAIR      18  10  73 NW17      30.08F WCI   2
WATFORD CITY   FAIR      23  12  63 W13       30.11S WCI  11
BISMARCK       PTSUNNY   27  18  69 NW14      30.13S WCI  16
GRAND FORKS    PTSUNNY   20  11  68 NW16      30.03S WCI   6
FARGO          CLOUDY    22  11  62 NW22      30.04R WCI   6
BUFFALO SD       N/A     32  25  75 W7        30.05S WCI  26
RAPID CITY     FAIR      44  18  35 NW22G35   30.15S
$$

REGIONAL REPORTS...WYOMING/IDAHO/WASHINGTON

CITY           SKY/WX    TMP DP  RH WIND       PRES   REMARKS
GILLETTE       FAIR      39  14  36 NW13      30.17S WCI  31
SHERIDAN       FAIR      40  16  37 E6        30.17R
BUFFALO WY     FAIR      32  13  45 S13       30.16S WCI  22
CODY           FAIR      37  11  34 W16G26    30.20R WCI  28
IDAHO FALLS    FAIR      29  24  82 SW8       30.44R WCI  21
SALMON         FAIR      34  17  50 N6        30.40R WCI  29
BOISE          FAIR      41  23  48 SE14      30.40F
SPOKANE        PTSUNNY   36  33  89 S5        30.31S
$$

REGIONAL REPORTS...ALBERTA

CITY           SKY/WX    TMP DP  RH WIND       PRES   REMARKS
EDMONTON       MOSUNNY   21  12  68 SW7       29.83F WCI  13
CALGARY        PTSUNNY   36  14  41 SW7       29.93R WCI  30
LETHBRIDGE     MOSUNNY   36  23  60 W26G33    30.02S WCI  23
MEDICINE HAT   CLOUDY    25  19  80 SW9       30.01F WCI  15
$$

REGIONAL REPORTS...SASKATCHEWAN

CITY           SKY/WX    TMP DP  RH WIND       PRES   REMARKS
SWIFT CURRENT  CLOUDY    21  14  73 SW20      29.96F WCI   6
REGINA         PTSUNNY   12   7  79 W8        30.06S WCI   1
SASKATOON      PTSUNNY    9   3  78 SW12      30.01F WCI  -6
$$




USA.gov is the U.S. government's official web portal to all federal, state and local government web resources and services.